Location: Unspecified
(35.8833°N, 0.0000°E)
Time: 18:29:18
(UTC+00:00)

Tiangong 2 - Visible Passes

Search period start: 21 May 2019 00:00
Search period end: 31 May 2019 00:00
Orbit: 379 x 387 km, 42.8° (Epoch: 21 May)

Date Brightness Start Highest point End Pass type
(mag) Time Alt. Az. Time Alt. Az. Time Alt. Az.
21 May 1.4 19:55:56 10° WSW 19:59:02 68° NNW 20:02:09 10° ENE visible
21 May 3.3 21:33:28 10° WNW 21:36:04 24° N 21:36:04 24° N visible
22 May 3.0 20:33:05 10° WNW 20:35:54 29° NNW 20:38:42 10° NE visible
22 May 4.3 22:10:36 10° NW 22:11:20 14° NW 22:11:20 14° NW visible
23 May 2.4 19:32:46 10° W 19:35:45 41° NNW 19:38:44 10° NE visible
23 May 3.4 21:10:24 10° NW 21:12:55 22° N 21:14:10 17° NNE visible
24 May 3.3 20:10:03 10° WNW 20:12:42 24° N 20:15:19 10° NE visible
24 May 3.6 21:47:17 10° NW 21:49:04 22° NNW 21:49:04 22° NNW visible
25 May 3.3 20:47:11 10° NW 20:49:45 22° N 20:51:42 13° NE visible
25 May 4.5 22:23:49 10° NW 22:23:52 10° NW 22:23:52 10° NW visible
26 May 3.4 19:46:57 10° NW 19:49:29 22° N 19:52:02 10° NE visible
26 May 2.7 21:23:51 10° NW 21:26:26 32° N 21:26:26 32° N visible
27 May 3.0 20:23:50 10° NW 20:26:31 25° N 20:28:58 11° ENE visible
27 May 3.9 22:00:22 10° WNW 22:01:08 16° WNW 22:01:08 16° WNW visible
28 May 1.6 21:00:21 10° NW 21:03:24 48° NNE 21:03:40 47° NE visible
29 May 2.5 20:00:22 10° NW 20:03:14 32° NNE 20:06:06 10° E visible
29 May 3.2 21:36:59 10° WNW 21:38:22 23° W 21:38:22 23° W visible
30 May 1.0 20:36:52 10° WNW 20:40:00 84° NNE 20:40:54 43° ESE visible
